Location: Battery Park City
(40.7115°N, 74.0163°W)
Time: 15:16:15
(UTC+00:00)

Cosmos 1992 Rocket - Pass Details

Date: 08 December 2019
Orbit: 758 x 767 km, 74.0° (Epoch: 23 January)

Event Time Altitude Azimuth Distance (km) Brightness Sun altitude
Rises 22:26:28 0° 344° (NNW) 3,232 7.2 -10.8°
Reaches altitude 10° 22:28:53 10° 349° (NNW) 2,303 6.4 -11.2°
Maximum altitude 22:34:02 57° 68° (ENE) 897 4.0 -12.1°
Drops below altitude 10° 22:39:09 10° 147° (SSE) 2,294 6.3 -13.0°
Sets 22:41:33 0° 151° (SSE) 3,217 7.1 -13.4°
